• In Hungary
  • List of Countries
  • For 7 days
  • Water Temperature
  • Satellite Maps
  • Weather Map
  • News
  • Weather Widgets
  • user-avatar
    Login

    Hourly Weather Zaheevo

    Today, 28 May, Monday

    Time Temperature Precipitation Wind Pressure Humidity
    00:00 +11°C° 0 mm 3 mps 753 mmHg 65%
    01:00 +10°C° 0 mm 3 mps 754 mmHg 64%
    02:00 +9°C° 0 mm 3 mps 754 mmHg 63%
    03:00 +8°C° 0 mm 3 mps 755 mmHg 62%
    04:00 +8°C° 0 mm 3 mps 756 mmHg 62%
    05:00 +8°C° 0 mm 3 mps 756 mmHg 61%
    06:00 +10°C° 0 mm 3 mps 757 mmHg 56%
    07:00 +12°C° 0 mm 3 mps 757 mmHg 50%
    08:00 +13°C° 0 mm 3 mps 758 mmHg 45%
    09:00 +14°C° 0 mm 3 mps 758 mmHg 42%
    10:00 +16°C° 0 mm 3 mps 758 mmHg 38%
    11:00 +17°C° 0 mm 3 mps 758 mmHg 35%
    12:00 +18°C° 0 mm 3 mps 758 mmHg 35%
    13:00 +18°C° 0 mm 3 mps 758 mmHg 35%
    14:00 +19°C° 0 mm 3 mps 758 mmHg 34%
    15:00 +19°C° 0 mm 3 mps 758 mmHg 37%
    16:00 +18°C° 0 mm 2 mps 758 mmHg 39%
    17:00 +18°C° 0 mm 2 mps 758 mmHg 41%
    18:00 +16°C° 0 mm 2 mps 758 mmHg 48%
    19:00 +14°C° 0 mm 1 mps 758 mmHg 55%
    20:00 +12°C° 0 mm 1 mps 758 mmHg 62%
    21:00 +11°C° 0 mm 1 mps 758 mmHg 63%
    22:00 +10°C° 0 mm 1 mps 758 mmHg 64%
    23:00 +10°C° 0 mm 1 mps 758 mmHg 65%

    Tomorrow, 29 May, Tuesday

    Time Temperature Precipitation Wind Pressure Humidity
    00:00 +9°C° 0 mm 1 mps 758 mmHg 66%
    01:00 +8°C° 0 mm 2 mps 758 mmHg 67%
    02:00 +7°C° 0 mm 2 mps 759 mmHg 67%
    03:00 +8°C° 0 mm 2 mps 758 mmHg 67%
    04:00 +9°C° 0 mm 2 mps 758 mmHg 66%
    05:00 +9°C° 0 mm 2 mps 758 mmHg 66%
    06:00 +12°C° 0 mm 2 mps 758 mmHg 60%
    07:00 +14°C° 0 mm 2 mps 758 mmHg 54%
    08:00 +17°C° 0 mm 2 mps 757 mmHg 48%
    09:00 +18°C° 0 mm 3 mps 757 mmHg 45%
    10:00 +19°C° 0 mm 3 mps 756 mmHg 42%
    11:00 +21°C° 0 mm 3 mps 756 mmHg 38%
    12:00 +21°C° 0 mm 3 mps 755 mmHg 38%
    13:00 +22°C° 0 mm 3 mps 754 mmHg 39%
    14:00 +24°C° 0 mm 3 mps 754 mmHg 39%
    15:00 +24°C° 0 mm 3 mps 753 mmHg 41%
    16:00 +22°C° 0 mm 3 mps 752 mmHg 44%
    17:00 +22°C° 0 mm 3 mps 751 mmHg 47%
    18:00 +20°C° 0 mm 3 mps 751 mmHg 55%
    19:00 +18°C° 0 mm 3 mps 750 mmHg 64%
    20:00 +17°C° 0 mm 3 mps 749 mmHg 72%
    21:00 +16°C° 0 mm 3 mps 749 mmHg 73%
    22:00 +16°C° 0 mm 3 mps 749 mmHg 75%
    23:00 +16°C° 0 mm 3 mps 748 mmHg 76%

    Day after tomorrow, 30 May, Wednesday

    Time Temperature Precipitation Wind Pressure Humidity
    00:00 +16°C° 0 mm 3 mps 748 mmHg 79%
    01:00 +14°C° 0 mm 3 mps 747 mmHg 83%
    02:00 +14°C° 0 mm 4 mps 747 mmHg 86%
    03:00 +14°C° 0 mm 4 mps 747 mmHg 85%
    04:00 +15°C° 0 mm 4 mps 746 mmHg 84%
    05:00 +15°C° 0 mm 4 mps 746 mmHg 83%
    06:00 +18°C° 0 mm 4 mps 745 mmHg 73%
    07:00 +20°C° 0 mm 5 mps 745 mmHg 63%
    08:00 +22°C° 0 mm 6 mps 744 mmHg 53%
    09:00 +23°C° 0 mm 6 mps 744 mmHg 48%
    10:00 +24°C° 0 mm 6 mps 743 mmHg 43%
    11:00 +26°C° 0 mm 7 mps 743 mmHg 39%
    12:00 +26°C° 0 mm 7 mps 742 mmHg 39%
    13:00 +27°C° 0 mm 7 mps 742 mmHg 38%
    14:00 +27°C° 0 mm 6 mps 741 mmHg 38%
    15:00 +26°C° 0 mm 5 mps 741 mmHg 43%
    16:00 +25°C° 0 mm 4 mps 741 mmHg 49%
    17:00 +22°C° 0 mm 3 mps 740 mmHg 54%
    18:00 +21°C° 0 mm 3 mps 741 mmHg 56%
    19:00 +20°C° 0 mm 3 mps 741 mmHg 57%
    20:00 +18°C° 0 mm 3 mps 741 mmHg 59%
    21:00 +16°C° 0 mm 3 mps 741 mmHg 60%
    22:00 +13°C° 0 mm 3 mps 742 mmHg 61%
    23:00 +12°C° 0 mm 2 mps 742 mmHg 62%

    31 May, Thursday

    Time Temperature Precipitation Wind Pressure Humidity
    00:00 +10°C° 0 mm 2 mps 742 mmHg 64%
    01:00 +10°C° 0 mm 2 mps 742 mmHg 67%
    02:00 +9°C° 0 mm 2 mps 743 mmHg 69%
    03:00 +9°C° 0 mm 3 mps 743 mmHg 70%
    04:00 +9°C° 0 mm 3 mps 744 mmHg 71%
    05:00 +8°C° 0 mm 4 mps 744 mmHg 71%
    06:00 +10°C° 0 mm 4 mps 744 mmHg 66%
    07:00 +11°C° 0 mm 4 mps 745 mmHg 61%
    08:00 +13°C° 0 mm 4 mps 745 mmHg 55%
    09:00 +13°C° 0 mm 4 mps 746 mmHg 52%
    10:00 +14°C° 0 mm 4 mps 746 mmHg 48%
    11:00 +14°C° 0 mm 4 mps 746 mmHg 45%
    12:00 +15°C° 0 mm 4 mps 746 mmHg 43%
    13:00 +15°C° 0 mm 4 mps 746 mmHg 41%
    14:00 +15°C° 0 mm 4 mps 747 mmHg 39%
    15:00 +14°C° 0 mm 4 mps 747 mmHg 39%
    16:00 +14°C° 0 mm 4 mps 747 mmHg 40%
    17:00 +13°C° 0 mm 4 mps 747 mmHg 41%
    18:00 +12°C° 0 mm 3 mps 748 mmHg 46%
    19:00 +10°C° 0 mm 3 mps 748 mmHg 52%
    20:00 +8°C° 0 mm 2 mps 749 mmHg 58%
    21:00 +7°C° 0 mm 2 mps 749 mmHg 60%
    22:00 +6°C° 0 mm 2 mps 749 mmHg 61%
    23:00 +5°C° 0 mm 2 mps 750 mmHg 63%

    1 June, Friday

    Time Temperature Precipitation Wind Pressure Humidity
    00:00 +4°C° 0 mm 2 mps 750 mmHg 64%
    01:00 +4°C° 0 mm 2 mps 750 mmHg 64%
    02:00 +2°C° 0 mm 3 mps 751 mmHg 65%
    03:00 +3°C° 0 mm 3 mps 751 mmHg 64%
    04:00 +3°C° 0 mm 3 mps 751 mmHg 63%
    05:00 +3°C° 0 mm 3 mps 752 mmHg 61%
    06:00 +5°C° 0 mm 3 mps 752 mmHg 56%
    07:00 +6°C° 0 mm 4 mps 752 mmHg 51%
    08:00 +8°C° 0 mm 4 mps 753 mmHg 45%
    09:00 +10°C° 0 mm 4 mps 753 mmHg 44%
    10:00 +10°C° 0 mm 4 mps 753 mmHg 43%
    11:00 +11°C° 0 mm 4 mps 753 mmHg 42%
    12:00 +12°C° 0 mm 4 mps 753 mmHg 41%
    13:00 +12°C° 0 mm 4 mps 753 mmHg 41%
    14:00 +13°C° 0 mm 4 mps 752 mmHg 41%
    15:00 +13°C° 0 mm 3 mps 752 mmHg 41%
    16:00 +13°C° 0 mm 3 mps 752 mmHg 42%
    17:00 +12°C° 0 mm 3 mps 752 mmHg 43%
    18:00 +12°C° 0 mm 2 mps 752 mmHg 50%
    19:00 +9°C° 0 mm 2 mps 753 mmHg 57%
    20:00 +8°C° 0 mm 1 mps 753 mmHg 64%
    21:00 +7°C° 0 mm 1 mps 753 mmHg 66%
    22:00 +6°C° 0 mm 1 mps 753 mmHg 68%
    23:00 +4°C° 0 mm 0 mps 754 mmHg 69%

    2 June, Saturday

    Time Temperature Precipitation Wind Pressure Humidity
    00:00 +5°C° 0 mm 1 mps 754 mmHg 69%
    01:00 +4°C° 0 mm 1 mps 754 mmHg 69%
    02:00 +4°C° 0 mm 1 mps 754 mmHg 70%
    03:00 +5°C° 0 mm 1 mps 754 mmHg 67%
    04:00 +6°C° 0 mm 1 mps 754 mmHg 65%
    05:00 +6°C° 0 mm 0 mps 755 mmHg 63%
    06:00 +9°C° 0 mm 1 mps 755 mmHg 56%
    07:00 +12°C° 0 mm 1 mps 755 mmHg 50%
    08:00 +14°C° 0 mm 1 mps 755 mmHg 43%
    09:00 +16°C° 0 mm 1 mps 755 mmHg 40%
    10:00 +18°C° 0 mm 1 mps 754 mmHg 37%
    11:00 +20°C° 0 mm 1 mps 754 mmHg 34%
    12:00 +20°C° 0 mm 1 mps 754 mmHg 33%
    13:00 +21°C° 0 mm 1 mps 753 mmHg 33%
    14:00 +21°C° 0 mm 1 mps 753 mmHg 33%
    15:00 +21°C° 0 mm 1 mps 752 mmHg 35%
    16:00 +20°C° 0 mm 1 mps 752 mmHg 36%
    17:00 +20°C° 0 mm 1 mps 751 mmHg 38%
    18:00 +18°C° 0 mm 1 mps 751 mmHg 45%
    19:00 +15°C° 0 mm 1 mps 751 mmHg 53%
    20:00 +13°C° 0 mm 2 mps 751 mmHg 60%
    21:00 +12°C° 0 mm 2 mps 751 mmHg 62%
    22:00 +10°C° 0 mm 2 mps 751 mmHg 64%
    23:00 +9°C° 0 mm 2 mps 751 mmHg 65%
    Show more